Location: Unspecified
(54.1780°N, 0.0000°E)
Time: 11:05:41
(UTC+00:00)

S-56A Canister/Altair - Pass Details

Date: 25 June 2019
Orbit: 633 x 2499 km, 38.9° (Epoch: 17 August)

Event Time Altitude Azimuth Distance (km) Brightness Sun altitude
Rises 18:04:52 0° 255° (WSW) 4,626 12.6 18.5°
Reaches altitude 10° 18:09:15 10° 241° (WSW) 3,273 11.6 17.8°
Maximum altitude 18:14:32 20° 198° (SSW) 2,177 10.0 17.1°
Drops below altitude 10° 18:18:42 10° 152° (SSE) 2,494 9.8 16.5°
Sets 18:21:30 0° 135° (SE) 3,233 10.2 16.1°
